When you browse on this site, cookies collect data to enhance your experience and personalize the content and advertising you see.
Visit our Privacy Policy to learn more. By continuing to use the site, you agree to this use of cookies and data.
  • In Hungary
  • List of Countries
  • For 7 days
  • Water Temperature
  • Satellite Maps
  • Weather Map
  • News
  • Weather Widgets
  • user-avatar
    Login

    Hourly Weather Vitrivka

    Today, 22 July, Monday

    Time Temperature Precipitation Wind Pressure Humidity
    00:00 +24°C° 0 mm 3 mps 757 mmHg 56%
    01:00 +22°C° 0 mm 3 mps 757 mmHg 57%
    02:00 +23°C° 0 mm 2 mps 757 mmHg 57%
    03:00 +23°C° 0 mm 2 mps 757 mmHg 56%
    04:00 +23°C° 0 mm 2 mps 757 mmHg 55%
    05:00 +23°C° 0 mm 2 mps 757 mmHg 54%
    06:00 +25°C° 0 mm 2 mps 757 mmHg 47%
    07:00 +28°C° 0 mm 1 mps 757 mmHg 40%
    08:00 +31°C° 0 mm 1 mps 757 mmHg 32%
    09:00 +32°C° 0 mm 2 mps 757 mmHg 30%
    10:00 +34°C° 0 mm 3 mps 757 mmHg 27%
    11:00 +35°C° 0 mm 3 mps 757 mmHg 24%
    12:00 +35°C° 0 mm 3 mps 757 mmHg 25%
    13:00 +35°C° 0 mm 3 mps 757 mmHg 25%
    14:00 +35°C° 0 mm 3 mps 757 mmHg 25%
    15:00 +34°C° 0 mm 3 mps 757 mmHg 27%
    16:00 +34°C° 0 mm 4 mps 756 mmHg 28%
    17:00 +33°C° 0 mm 4 mps 756 mmHg 29%
    18:00 +30°C° 0 mm 4 mps 756 mmHg 35%
    19:00 +29°C° 0 mm 3 mps 756 mmHg 42%
    20:00 +27°C° 0 mm 3 mps 756 mmHg 48%
    21:00 +26°C° 0 mm 2 mps 756 mmHg 51%
    22:00 +25°C° 0 mm 2 mps 756 mmHg 54%
    23:00 +25°C° 0 mm 2 mps 756 mmHg 57%

    Tomorrow, 23 July, Tuesday

    Time Temperature Precipitation Wind Pressure Humidity
    00:00 +24°C° 0 mm 1 mps 755 mmHg 61%
    01:00 +24°C° 0 mm 1 mps 755 mmHg 64%
    02:00 +23°C° 0 mm 1 mps 755 mmHg 68%
    03:00 +23°C° 0 mm 1 mps 754 mmHg 68%
    04:00 +23°C° 0 mm 1 mps 754 mmHg 67%
    05:00 +21°C° 0 mm 0 mps 754 mmHg 67%
    06:00 +25°C° 0 mm 1 mps 754 mmHg 58%
    07:00 +28°C° 0 mm 2 mps 754 mmHg 49%
    08:00 +30°C° 0 mm 2 mps 754 mmHg 40%
    09:00 +31°C° 0 mm 3 mps 754 mmHg 40%
    10:00 +32°C° 0 mm 4 mps 754 mmHg 39%
    11:00 +33°C° 0 mm 4 mps 754 mmHg 39%
    12:00 +32°C° 0.3 mm 4 mps 753 mmHg 44%
    13:00 +29°C° 0.3 mm 4 mps 753 mmHg 50%
    14:00 +28°C° 0.3 mm 4 mps 753 mmHg 55%
    15:00 +27°C° 2.9 mm 4 mps 753 mmHg 60%
    16:00 +26°C° 2.9 mm 4 mps 753 mmHg 65%
    17:00 +23°C° 2.9 mm 5 mps 753 mmHg 71%
    18:00 +23°C° 0 mm 4 mps 753 mmHg 73%
    19:00 +22°C° 0 mm 3 mps 753 mmHg 76%
    20:00 +21°C° 0 mm 3 mps 752 mmHg 79%
    21:00 +21°C° 0 mm 2 mps 752 mmHg 81%
    22:00 +21°C° 0 mm 2 mps 752 mmHg 83%
    23:00 +21°C° 0 mm 1 mps 752 mmHg 85%

    Day after tomorrow, 24 July, Wednesday

    Time Temperature Precipitation Wind Pressure Humidity
    00:00 +21°C° 0 mm 1 mps 752 mmHg 85%
    01:00 +21°C° 0 mm 1 mps 752 mmHg 85%
    02:00 +19°C° 0 mm 0 mps 752 mmHg 85%
    03:00 +21°C° 0 mm 1 mps 752 mmHg 83%
    04:00 +21°C° 0 mm 1 mps 752 mmHg 82%
    05:00 +20°C° 0 mm 2 mps 752 mmHg 81%
    06:00 +21°C° 0 mm 2 mps 752 mmHg 73%
    07:00 +24°C° 0 mm 3 mps 752 mmHg 65%
    08:00 +25°C° 0 mm 3 mps 752 mmHg 58%
    09:00 +26°C° 0 mm 3 mps 752 mmHg 51%
    10:00 +28°C° 0 mm 4 mps 752 mmHg 45%
    11:00 +29°C° 0 mm 4 mps 752 mmHg 39%
    12:00 +29°C° 0 mm 5 mps 752 mmHg 37%
    13:00 +30°C° 0 mm 5 mps 752 mmHg 34%
    14:00 +30°C° 0 mm 6 mps 752 mmHg 32%
    15:00 +29°C° 0 mm 6 mps 752 mmHg 32%
    16:00 +29°C° 0 mm 5 mps 752 mmHg 33%
    17:00 +29°C° 0 mm 5 mps 752 mmHg 34%
    18:00 +27°C° 0 mm 5 mps 752 mmHg 42%
    19:00 +25°C° 0 mm 4 mps 752 mmHg 51%
    20:00 +24°C° 0 mm 3 mps 752 mmHg 59%
    21:00 +22°C° 0 mm 3 mps 752 mmHg 63%
    22:00 +22°C° 0 mm 3 mps 752 mmHg 67%
    23:00 +21°C° 0 mm 3 mps 752 mmHg 71%

    25 July, Thursday

    Time Temperature Precipitation Wind Pressure Humidity
    00:00 +21°C° 0 mm 3 mps 752 mmHg 73%
    01:00 +21°C° 0 mm 3 mps 752 mmHg 75%
    02:00 +21°C° 0 mm 3 mps 752 mmHg 77%
    03:00 +21°C° 0 mm 3 mps 752 mmHg 78%
    04:00 +20°C° 0 mm 3 mps 752 mmHg 79%
    05:00 +20°C° 0 mm 3 mps 752 mmHg 80%
    06:00 +22°C° 0 mm 4 mps 752 mmHg 73%
    07:00 +23°C° 0 mm 4 mps 752 mmHg 65%
    08:00 +25°C° 0 mm 5 mps 752 mmHg 58%
    09:00 +27°C° 0 mm 6 mps 752 mmHg 51%
    10:00 +28°C° 0 mm 6 mps 753 mmHg 45%
    11:00 +29°C° 0 mm 6 mps 753 mmHg 38%
    12:00 +29°C° 0 mm 6 mps 753 mmHg 37%
    13:00 +29°C° 0 mm 6 mps 752 mmHg 36%
    14:00 +30°C° 0 mm 7 mps 752 mmHg 35%
    15:00 +29°C° 0 mm 6 mps 752 mmHg 38%
    16:00 +28°C° 0 mm 6 mps 752 mmHg 40%
    17:00 +27°C° 0 mm 6 mps 752 mmHg 43%
    18:00 +26°C° 0 mm 6 mps 752 mmHg 49%
    19:00 +25°C° 0 mm 5 mps 752 mmHg 55%
    20:00 +22°C° 0 mm 4 mps 752 mmHg 61%
    21:00 +22°C° 0 mm 5 mps 752 mmHg 64%
    22:00 +21°C° 0 mm 5 mps 752 mmHg 68%
    23:00 +20°C° 0 mm 5 mps 752 mmHg 72%

    26 July, Friday

    Time Temperature Precipitation Wind Pressure Humidity
    00:00 +20°C° 1.1 mm 5 mps 752 mmHg 74%
    01:00 +20°C° 1.1 mm 4 mps 751 mmHg 77%
    02:00 +20°C° 1.1 mm 4 mps 751 mmHg 79%
    03:00 +20°C° 0.5 mm 4 mps 751 mmHg 80%
    04:00 +19°C° 0.5 mm 4 mps 751 mmHg 82%
    05:00 +19°C° 0.5 mm 3 mps 751 mmHg 83%
    06:00 +21°C° 0 mm 3 mps 751 mmHg 75%
    07:00 +22°C° 0 mm 4 mps 751 mmHg 67%
    08:00 +25°C° 0 mm 4 mps 750 mmHg 59%
    09:00 +26°C° 0.2 mm 4 mps 750 mmHg 55%
    10:00 +27°C° 0.2 mm 5 mps 750 mmHg 51%
    11:00 +28°C° 0.2 mm 6 mps 751 mmHg 47%
    12:00 +28°C° 0.1 mm 6 mps 750 mmHg 45%
    13:00 +29°C° 0.1 mm 6 mps 750 mmHg 43%
    14:00 +30°C° 0.1 mm 6 mps 750 mmHg 41%
    15:00 +29°C° 0 mm 6 mps 750 mmHg 43%
    16:00 +29°C° 0 mm 6 mps 750 mmHg 44%
    17:00 +29°C° 0 mm 6 mps 750 mmHg 46%
    18:00 +27°C° 0.1 mm 5 mps 750 mmHg 52%
    19:00 +26°C° 0.1 mm 5 mps 750 mmHg 58%
    20:00 +23°C° 0.1 mm 4 mps 750 mmHg 64%
    21:00 +23°C° 0 mm 4 mps 750 mmHg 67%
    22:00 +22°C° 0 mm 3 mps 750 mmHg 71%
    23:00 +22°C° 0 mm 3 mps 750 mmHg 74%

    27 July, Saturday

    Time Temperature Precipitation Wind Pressure Humidity
    00:00 +21°C° 0 mm 3 mps 750 mmHg 77%
    01:00 +21°C° 0 mm 3 mps 750 mmHg 80%
    02:00 +20°C° 0 mm 3 mps 750 mmHg 83%
    03:00 +20°C° 0 mm 2 mps 750 mmHg 84%
    04:00 +20°C° 0 mm 2 mps 750 mmHg 84%
    05:00 +20°C° 0 mm 2 mps 750 mmHg 85%
    06:00 +23°C° 0 mm 2 mps 750 mmHg 74%
    07:00 +24°C° 0 mm 2 mps 750 mmHg 62%
    08:00 +26°C° 0 mm 2 mps 750 mmHg 51%
    09:00 +28°C° 0 mm 3 mps 750 mmHg 47%
    10:00 +29°C° 0 mm 3 mps 750 mmHg 43%
    11:00 +30°C° 0 mm 3 mps 751 mmHg 39%
    12:00 +30°C° 0 mm 3 mps 750 mmHg 39%
    13:00 +31°C° 0 mm 3 mps 750 mmHg 38%
    14:00 +31°C° 0 mm 3 mps 750 mmHg 38%
    15:00 +32°C° 0 mm 4 mps 750 mmHg 39%
    16:00 +32°C° 0 mm 4 mps 750 mmHg 39%
    17:00 +30°C° 0 mm 4 mps 750 mmHg 40%
    18:00 +29°C° 0 mm 4 mps 750 mmHg 46%
    19:00 +27°C° 0 mm 4 mps 750 mmHg 53%
    20:00 +26°C° 0 mm 3 mps 750 mmHg 59%
    21:00 +26°C° 0.2 mm 3 mps 750 mmHg 62%
    22:00 +25°C° 0.2 mm 3 mps 750 mmHg 65%
    23:00 +25°C° 0.2 mm 3 mps 750 mmHg 67%
    Show more